Home > Weather > Knarrevik/Straume > Past weeks

Flag for Norway Past Weather in Knarrevik/Straume, Norway — Yesterday and Last 2 Weeks

Now
63 °F

Partly sunny.


Feels Like: 63 °F
Forecast: 58 / 71 °F
Wind: 3 mph from Southeast

Location: Bergen / Flesland

Current Time: Jul 23, 2016 at 11:23:19 PM

Latest Report: Jul 23, 2016 at 10:50 PM


Visibility: N/A

Pressure: 30.12 "Hg

Humidity: 83%

Dew Point: 57 °F

Location of Knarrevik/StraumeLocation

Past Weather in Knarrevik/Straume — Graph

°F

Knarrevik/Straume Temperature Yesterday

Maximum temperature yesterday: 64 °F (at 12:20 PM)
Minimum temperature yesterday: 59 °F (at 3:50 AM)
Average temperature yesterday: 61 °F

High & Low Weather Summary for the Past Weeks

 TemperatureHumidityPressure
High77 °F (Jul 21, 10:20 AM)100% (Jul 10, 10:20 PM)30.15 "Hg (Jul 10, 10:20 PM)
Low50 °F (Jul 10, 12:50 AM)42% (Jul 21, 10:20 AM)29.42 "Hg (Jul 11, 5:50 AM)
Average58 °F86%29.86 "Hg
* Reported Jul 8 9:20 PM — Jul 23 9:50 PM, Knarrevik/Straume, Weather by CustomWeather, © 2016

Note: Actual official high and low records may vary slightly from our data, if they occured in-between our weather recording intervals... More about our weather records

Advertising

Knarrevik/Straume Weather History for the Previous 24 Hours

Scroll right to see more
 ConditionsComfort  
Time TempWeatherWind HumidityBarometerVisibility
9:50 PM
Sat, Jul 23
64 °FDrizzle. Partly sunny.3 mph78%30.12 "HgN/A
9:20 PM64 °FBroken clouds.3 mph78%30.12 "HgN/A
8:50 PM64 °FBroken clouds.5 mph78%30.12 "HgN/A
8:20 PM64 °FBroken clouds.6 mph78%30.12 "HgN/A
7:50 PM64 °FScattered clouds.6 mph78%30.12 "HgN/A
7:20 PM66 °FBroken clouds.6 mph68%30.12 "HgN/A
6:50 PM66 °FPartly sunny.7 mph73%30.12 "HgN/A
6:20 PM68 °FScattered clouds.8 mph64%30.12 "HgN/A
5:50 PM68 °FScattered clouds.6 mph64%30.12 "HgN/A
5:20 PM70 °FScattered clouds.8 mph60%30.12 "HgN/A
4:50 PM70 °FScattered clouds.7 mph60%30.12 "HgN/A
4:20 PM70 °FScattered clouds.7 mph60%30.12 "HgN/A
3:50 PM68 °FScattered clouds.7 mph64%30.12 "HgN/A
3:20 PM68 °FScattered clouds.6 mph64%30.12 "HgN/A
2:50 PM68 °FScattered clouds.8 mph60%30.15 "HgN/A
2:20 PM66 °FScattered clouds.9 mph68%30.15 "HgN/A
1:50 PM68 °FScattered clouds.10 mph64%30.12 "HgN/A
1:20 PM68 °FScattered clouds.8 mph64%30.12 "HgN/A
12:50 PM68 °FPassing clouds.8 mph64%30.12 "HgN/A
12:20 PM66 °FPassing clouds.8 mph64%30.12 "HgN/A
11:50 AM64 °FScattered clouds.8 mph73%30.12 "HgN/A
11:20 AM63 °FPartly sunny.6 mph83%30.12 "HgN/A
10:50 AM63 °FPartly sunny.6 mph83%30.12 "HgN/A
10:20 AM63 °FPartly sunny.3 mph83%30.12 "HgN/A
9:50 AM61 °FPartly sunny.5 mph88%30.12 "HgN/A
9:20 AM61 °FPartly sunny.3 mph88%30.12 "HgN/A
8:50 AM61 °FPartly sunny.2 mph88%30.12 "HgN/A
8:20 AM59 °FPartly sunny.2 mph94%30.12 "HgN/A
7:50 AM59 °FPartly sunny.1 mph94%30.12 "HgN/A
7:20 AM57 °FPartly sunny.3 mph94%30.12 "HgN/A
6:50 AM57 °FPartly sunny.3 mph94%30.12 "HgN/A
6:20 AM57 °FPartly sunny.3 mph94%30.12 "HgN/A
5:50 AM57 °FPassing clouds.3 mph94%30.12 "HgN/A
4:50 AM55 °FPassing clouds.2 mph100%30.12 "HgN/A
3:20 AM55 °FClear.3 mph94%30.12 "Hg10 mi
2:50 AM55 °FClear.5 mph94%30.12 "Hg10 mi
1:50 AM57 °FClear.3 mph94%30.12 "Hg10 mi
12:50 AM57 °FPassing clouds.3 mph94%30.12 "HgN/A
11:50 PM
Fri, Jul 22
59 °FPassing clouds.2 mph88%30.12 "HgN/A
11:20 PM59 °FPartly sunny.1 mph88%30.12 "HgN/A
Weather by CustomWeather, © 2016

See weather overviewHow to use our weather pages